User: anonymous   Login
Location: Unspecified
(0.0000°N, 0.0000°E)
Time: 20:10:53
(UTC+00:00)
Language:

IMPULSE-1 MIRA - Orbit

View from above orbital plane
View from above orbital plane
View from above satellite
View from above satellite

Ground track
Ground track

The orbit is defined by the following mean orbital elements,

1 58301U          26145.22888167 +.00000000 +00000-0 +34521-3 0 00008
2 58301  97.5188 230.2560 0073764 202.7492 157.0477 15.34589894    05
Epoch (UTC): 25 May 2026 05:29:35
Eccentricity: 0.0073764
inclination: 97.5188°
perigee height: 412 km
apogee height: 513 km
right ascension of ascending node: 230.2560°
argument of perigee: 202.7492°
revolutions per day: 15.34589894
mean anomaly at epoch: 157.0477°

The dashed part of the orbit path shows where the satellite is in the earth's shadow,  

DLR